Sault Ste Marie, MI

3:50 PM EDT on June 25, 2017 (GMT -0400)
Sault Ste Marie Municipal / Sanderson Field

Weather History for KANJ - January, 2013

Change the Weather History Date:

Thursday, January 24, 2013

  Actual Average Record
Temperature  
Mean Temperature -3 °F 15 °F  
Max Temperature 8 °F 23 °F 44 °F (1916)
Min Temperature -15 °F 7 °F -19 °F (1897)
Degree Days  
Heating Degree Days 68 50  
Month to date heating degree days 1093 1188  
Since 1 July heating degree days 4060 4447  
Moisture  
Dew Point -10 °F    
Average Humidity 70    
Maximum Humidity 87    
Minimum Humidity 53    
Precipitation  
Precipitation T in 0.06 in 0.95 in (1938)
Month to date precipitation 2.22 1.75  
Year to date precipitation 2.22 1.75  
Snow  
Snow T in 1.00 in 6.90 in (1987)
Month to date snowfall 26.4 24.8  
Since 1 July snowfall 78.4 75.0  
Snow Depth 15.00 in    
Sea Level Pressure  
Sea Level Pressure 30.54 in    
Wind  
Wind Speed 4 mph (NNE)    
Max Wind Speed 15 mph    
Max Gust Speed 19 mph    
Visibility 10 miles    
Events      
T = Trace of Precipitation, MM = Missing Value Source: NWS Daily Summary

Daily Weather History Graph

Daily Weather History Graph

Search for Another Location

Airport or City:

Trip Planner

Search our weather history database for the weather conditions in past years. The results will help you decide how hot, cold, wet, or windy it might be!

Date:

Astronomy

Jan. 24, 2013 Rise Set
Actual Time 8:09 AM EST 5:30 PM EST
Civil Twilight 7:36 AM EST 6:03 PM EST
Nautical Twilight 6:59 AM EST 6:39 PM EST
Astronomical Twilight 6:24 AM EST 7:15 PM EST
Moon 3:29 PM EST (1/24) 6:08 AM EST (1/24)
Length of Visible Light 10h 26m
Length of Day
9h 20m
Waxing Gibbous, 94% of the Moon is Illuminated
Jan 24
Waxing Gibbous
Jan 26
Full
Feb 3
Last Quarter
Feb 10
New
Feb 17
First Quarter

Hourly Weather History & Observations

Time (EST) Temp. Windchill Dew Point Humidity Pressure Visibility Wind Dir Wind Speed Gust Speed Precip Events Conditions
12:55 AM -2.0 °F -19.6 °F -11.9 °F 63% 30.35 in 10.0 mi NE 11.5 mph - N/A   Clear
1:55 AM -4.0 °F -19.0 °F -14.1 °F 62% 30.40 in 10.0 mi NNE 8.1 mph - N/A   Clear
2:55 AM -6.0 °F -20.1 °F -16.1 °F 62% 30.44 in 10.0 mi NNE 6.9 mph - N/A   Clear
3:55 AM -7.1 °F -15.9 °F -17.0 °F 62% 30.48 in 10.0 mi North 3.5 mph - N/A   Clear
4:55 AM -9.0 °F -26.4 °F -18.0 °F 65% 30.51 in 10.0 mi North 9.2 mph - N/A   Clear
5:55 AM -9.9 °F -21.5 °F -18.9 °F 65% 30.54 in 10.0 mi North 4.6 mph - N/A   Clear
6:55 AM -13.0 °F -25.1 °F -20.0 °F 71% 30.58 in 10.0 mi NNE 4.6 mph - N/A   Clear
7:55 AM -11.0 °F -22.8 °F -18.9 °F 68% 30.59 in 10.0 mi NNE 4.6 mph - N/A   Partly Cloudy
8:55 AM -9.9 °F -21.5 °F -18.9 °F 65% 30.61 in 10.0 mi North 4.6 mph - N/A   Clear
9:55 AM -7.1 °F - -18.0 °F 59% 30.63 in 10.0 mi Calm Calm - N/A   Clear
11:55 AM -0.9 °F - -13.0 °F 57% 30.62 in 10.0 mi Calm Calm - N/A   Clear
12:55 PM 1.9 °F - -9.0 °F 60% 30.61 in 10.0 mi Calm Calm - N/A   Clear
1:55 PM 3.9 °F - -6.0 °F 64% 30.58 in 10.0 mi Calm Calm - N/A   Clear
2:55 PM 7.0 °F -4.5 °F -5.1 °F 58% 30.59 in 10.0 mi West 6.9 mph - N/A   Clear
3:55 PM 7.0 °F -1.7 °F -4.0 °F 61% 30.58 in 10.0 mi West 4.6 mph - N/A   Clear
4:55 PM 6.1 °F -2.8 °F -4.0 °F 63% 30.59 in 10.0 mi West 4.6 mph - N/A   Clear
5:55 PM 3.0 °F -4.4 °F -4.0 °F 73% 30.55 in 10.0 mi South 3.5 mph - N/A   Clear
6:55 PM 1.9 °F - -4.0 °F 76% 30.56 in 10.0 mi Calm Calm - N/A   Mostly Cloudy
7:55 PM -0.0 °F -7.9 °F -5.1 °F 79% 30.55 in 10.0 mi SSE 3.5 mph - N/A   Overcast
8:10 PM 1.9 °F -5.6 °F -4.0 °F 76% 30.47 in 10.0 mi SE 3.5 mph - N/A   Overcast
8:55 PM 3.9 °F - -2.0 °F 76% 30.53 in 7.0 mi Calm Calm - 0.00 in   Overcast
9:55 PM 1.9 °F - -2.9 °F 80% 30.50 in 10.0 mi Calm Calm - N/A   Partly Cloudy
10:55 PM 1.0 °F -6.7 °F -2.9 °F 83% 30.48 in 8.0 mi East 3.5 mph - N/A   Clear
11:55 PM 1.0 °F -8.7 °F -2.9 °F 83% 30.46 in 10.0 mi ENE 4.6 mph - N/A   Clear